Terminal Aerodrome Forecast
Issued by NWS

Home | Current Version | Previous Version | Text Only | Print | Product List | Glossary On
Versions: 1 2 3 4 5 6 7 8 9 10 11 12 13 14 15 16 17 18 19 20 21 22 23 24 25 26 27 28 29 30 31 32 33 34 35 36 37 38 39 40 41 42
000
FTAK31 PAFA 230521
TAFAQT
TAF
PAQT 230521Z 2306/2406 05011KT 1SM -RA BR OVC005
     FM231000 07008KT 1/2SM -RA FG OVC004
     FM231400 07013KT 4SM -RA BR OVC007
     FM240200 04007KT 6SM -RA BR OVC007=

USA.gov is the U.S. government's official web portal to all federal, state and local government web resources and services.